Location: Chuathbaluk
(61.5726°N, 159.2454°W)
Time: 14:12:14
(UTC+00:00)

XW-2F - Pass Details

Date: 19 January 2021
Orbit: 500 x 520 km, 97.5° (Epoch: 01 March)

Event Time Altitude Azimuth Distance (km) Brightness Sun altitude
Rises 05:02:02 0° 212° (SSW) 2,613 ? -19.4°
Reaches altitude 10° 05:04:48 10° 235° (SW) 1,738 ? -19.8°
Maximum altitude 05:07:09 16° 274° (W) 1,421 ? -20.0°
Drops below altitude 10° 05:09:30 10° 313° (NW) 1,755 ? -20.3°
Sets 05:12:19 0° 336° (NNW) 2,652 ? -20.7°
